Meteo Giornale » Osservazioni meteo Stati Uniti (USA) » New York La Guardia
ore: 15:51 - Osservazioni Meteo New York La Guardia
Lat. 40° 46' N Lon. 73° 52' W Alt. 6 metri s.l.m.
27 °C
Foschia
Temp. 24 Ore
22 °C
27 °C
Nord-Est
7.4 Km/h
Dew point 23 °C
Umidità 78 %
Visibilità 2 Km
Il sole sorge alle ore 06:22
Il sole tramonta alle ore 19:28
| Data e Ora | Cielo e Fenomeni | T °C | DP °C | Um. % | Pres. hPa | Vis. km | Vento km/h | |
|---|---|---|---|---|---|---|---|---|
| Oggi h: 15:51 | Foschia | 27 | 23 | 78 | 1013 | 2 | NE 7.4 | |
| Oggi h: 14:51 | Foschia | 27 | 24 | 83 | 1014 | 2 | S/SE 11.1 | |
| Oggi h: 13:57 | Foschia | 26 | 24 | 88 | 1014 | 2 | SE 9.3 | |
| Oggi h: 13:51 | Foschia | 26 | 24 | 88 | 1014 | 2 | S 9.3 | |
| Oggi h: 13:43 | Pioggia Foschia | 26 | 24 | 88 | 1013 | 2 | S 11.1 | |
| Oggi h: 13:12 | Foschia | 25 | 23 | 88 | 1014 | 5 | N 5.5 | |
| Oggi h: 12:58 | Foschia | 25 | 23 | 88 | 1014 | 3 | S 9.3 | |
| Oggi h: 12:51 | Foschia | 25 | 23 | 88 | 1015 | 3 | SO 9.3 | |
| Oggi h: 12:30 | Pioggia Foschia | 25 | 23 | 88 | 1014 | 3 | N 11.1 | |
| Oggi h: 11:51 | Pioggia Foschia | 24 | 22 | 88 | 1015 | 2 | S/SO 7.4 | |
| Oggi h: 11:49 | Pioggia Foschia | 24 | 22 | 88 | 1015 | 2 | S/SO 7.4 | |
| Oggi h: 11:40 | Pioggia Foschia | 24 | 22 | 88 | 1016 | 2 | N 0 | |
| Oggi h: 11:33 | Pioggia Foschia | 24 | 22 | 88 | 1016 | 2 | N 0 | |
| Oggi h: 10:51 | Pioggia | 24 | 22 | 88 | 1016 | 10 | N 5.5 | |
| Oggi h: 09:51 | Foschia | 24 | 22 | 88 | 1015 | 10 | N 0 | |
| Oggi h: 09:47 | Foschia | 24 | 22 | 88 | 1015 | 10 | N 0 | |
| Oggi h: 08:51 | Foschia | 24 | 22 | 88 | 1015 | 10 | S/SO 7.4 | |
| Oggi h: 08:45 | Foschia | 24 | 22 | 88 | 1015 | 10 | S/SO 9.3 | |
| Oggi h: 07:51 | Pioggia Foschia | 23 | 22 | 94 | 1016 | 10 | N 5.5 | |
| Oggi h: 07:13 | Foschia | 23 | 22 | 94 | 1016 | 10 | SO 7.4 | |
| Oggi h: 06:51 | Foschia | 23 | 22 | 94 | 1016 | 10 | N 0 | |
| Oggi h: 05:51 | Coperto | 23 | 22 | 94 | 1015 | 14 | N 0 | |
| Oggi h: 04:51 | Coperto | 23 | 21 | 88 | 1016 | 14 | S 9.3 | |
| Oggi h: 04:28 | Coperto | 22 | 21 | 94 | 1016 | 10 | SE 7.4 | |
| Oggi h: 03:51 | Pioggia | 23 | 21 | 88 | 1016 | 10 | N 0 | |
| Oggi h: 03:03 | Pioggia | 22 | 21 | 94 | 1016 | 10 | S 11.1 | |
| Oggi h: 02:51 | Pioggia | 22 | 21 | 94 | 1016 | 11 | S 7.4 | |
| Oggi h: 01:51 | Pioggia | 22 | 21 | 94 | 1017 | 11 | S 11.1 | |
| Oggi h: 00:51 | Pioggia | 22 | 20 | 88 | 1017 | 11 | S 11.1 | |
| Oggi h: 00:37 | Pioggia | 23 | 19 | 78 | 1017 | 14 | S 11.1 | |
| Ieri h: 23:51 | Coperto | 23 | 19 | 78 | 1017 | 10 | S/SO 11.1 | |
| Ieri h: 22:51 | Coperto | 23 | 19 | 78 | 1018 | 10 | S 16.7 | |
| Ieri h: 21:51 | Molto Nuvoloso | 23 | 19 | 78 | 1018 | 10 | S 13 | |
| Ieri h: 20:51 | Pioggia | 23 | 18 | 73 | 1018 | 10 | S 11.1 | |
| Ieri h: 19:51 | Molto Nuvoloso | 24 | 18 | 69 | 1018 | 10 | S/SE 13 | |
| Ieri h: 18:51 | Molto Nuvoloso | 24 | 18 | 69 | 1018 | 10 | S 11.1 | |
| Ieri h: 17:51 | Molto Nuvoloso | 24 | 18 | 69 | 1018 | 10 | S/SE 14.8 | |
| Ieri h: 16:51 | Molto Nuvoloso | 24 | 18 | 69 | 1018 | 10 | S 14.8 | |



